KC0OOO-WX Weather Reports


time (UTC)temp
F
wind
direction
speed
knots
gust
knots
rain 1hr
in
rain 24hr
in
rain mn
in
humidity
%
barometer
mb
20260509202929 73 346 5.2 14.8 0.00 0.00 0.00 17 1020.0
20260509201930 73 298 2.6 14.8 0.00 0.00 0.00 16 1020.0
20260509200859 73 259 4.3 14.8 0.00 0.00 0.00 17 1020.0
20260509195859 74 263 4.3 14.8 0.00 0.00 0.00 17 1020.0
20260509194859 74 291 5.2 14.8 0.00 0.00 0.00 16 1020.3
20260509193859 74 241 4.3 14.8 0.00 0.00 0.00 17 1020.3
20260509192859 72 96 2.6 14.8 0.00 0.00 0.00 19 1020.3
20260509191859 71 294 5.2 14.8 0.00 0.00 0.00 20 1020.3
20260509190859 71 171 1.7 10.4 0.00 0.00 0.00 19 1020.3
20260509185829 72 196 0.9 10.4 0.00 0.00 0.00 18 1020.3
20260509184829 72 221 1.7 10.4 0.00 0.00 0.00 18 1020.7
20260509183829 71 194 1.7 10.4 0.00 0.00 0.00 21 1020.7
20260509182829 69 282 4.3 10.4 0.00 0.00 0.00 18 1021.0
20260509181829 70 259 4.3 10.4 0.00 0.00 0.00 18 1021.0
20260509180759 70 12 0.9 7.8 0.00 0.00 0.00 19 1021.0
20260509175729 71 285 4.3 7.8 0.00 0.00 0.00 20 1021.0
20260509174659 72 299 1.7 7.8 0.00 0.00 0.00 21 1021.0
20260509173659 72 311 1.7 7.8 0.00 0.00 0.00 21 1021.0
20260509172659 73 207 1.7 7.8 0.00 0.00 0.00 21 1021.3
20260509171659 72 202 0.9 7.8 0.00 0.00 0.00 23 1021.3
20260509170629 71 190 1.7 7.8 0.00 0.00 0.00 23 1021.3
20260509165629 70 155 0.9 7.8 0.00 0.00 0.00 25 1021.3
20260509164559 69 145 1.7 5.2 0.00 0.00 0.00 24 1021.7
20260509163529 68 177 1.7 5.2 0.00 0.00 0.00 27 1021.7
20260509162529 66 212 0.9 5.2 0.00 0.00 0.00 27 1021.7
20260509161529 65 223 1.7 5.2 0.00 0.00 0.00 28 1021.7
20260509160529 63 355 0.9 4.3 0.00 0.00 0.00 33 1022.0
20260509155529 62 129 0.9 4.3 0.00 0.00 0.00 36 1022.0
20260509154529 60 108 0.0 4.3 0.00 0.00 0.00 37 1022.0
20260509153529 59 0 0.0 4.3 0.00 0.00 0.00 39 1022.0
20260509152529 57 98 0.9 4.3 0.00 0.00 0.00 39 1022.0
20260509151529 55 107 0.0 4.3 0.00 0.00 0.00 48 1022.0
20260509150529 53 185 0.0 4.3 0.00 0.00 0.00 49 1021.7
20260509145529 50 132 0.9 4.3 0.00 0.00 0.00 54 1021.7
20260509144529 48 30 0.0 4.3 0.00 0.00 0.00 56 1021.7
20260509143529 47 131 0.0 4.3 0.00 0.00 0.00 57 1021.7
20260509142459 45 172 2.6 4.3 0.00 0.00 0.00 59 1021.7
20260509141459 44 61 0.0 1.7 0.00 0.00 0.00 62 1021.7
20260509140459 42 77 0.0 1.7 0.00 0.00 0.00 66 1021.7
20260509135459 40 50 0.0 1.7 0.00 0.00 0.00 68 1021.7
20260509134459 40 55 0.0 1.7 0.00 0.00 0.00 69 1021.7
20260509133459 38 93 0.0 1.7 0.00 0.00 0.00 74 1021.7
20260509132459 36 267 0.0 1.7 0.00 0.00 0.00 76 1021.3
20260509131459 35 329 0.0 1.7 0.00 0.00 0.00 78 1021.3
20260509130459 33 264 0.0 1.7 0.00 0.00 0.00 78 1021.0
20260509125459 33 263 0.0 1.7 0.00 0.00 0.00 77 1021.0
20260509124459 32 263 0.0 1.7 0.00 0.00 0.00 77 1021.0
20260509123459 32 263 0.0 1.7 0.00 0.00 0.00 77 1021.0
20260509122458 32 263 0.0 1.7 0.00 0.00 0.00 76 1020.7
20260509121458 32 262 0.0 1.7 0.00 0.00 0.00 76 1020.7
20260509120458 33 262 0.0 1.7 0.00 0.00 0.00 74 1020.3
20260509115458 33 262 0.0 1.7 0.00 0.00 0.00 74 1020.3
20260509114458 33 262 0.0 1.7 0.00 0.00 0.00 73 1020.3
20260509113458 33 262 0.0 1.7 0.00 0.00 0.00 72 1020.3
20260509112458 34 262 0.0 1.7 0.00 0.00 0.00 71 1020.0
20260509111458 34 262 0.0 1.7 0.00 0.00 0.00 70 1020.0
20260509110458 34 262 0.0 1.7 0.00 0.00 0.00 70 1020.3
20260509105458 35 262 0.0 1.7 0.00 0.00 0.00 69 1020.3
20260509104458 35 262 0.0 1.7 0.00 0.00 0.00 68 1020.3
20260509103458 35 262 0.0 1.7 0.00 0.00 0.00 69 1020.3
20260509102458 36 262 0.0 1.7 0.00 0.00 0.00 68 1020.0
20260509101458 36 262 0.0 1.7 0.00 0.00 0.00 67 1020.0
20260509100458 37 267 0.0 1.7 0.00 0.00 0.00 66 1020.3
20260509095458 37 261 0.0 1.7 0.00 0.00 0.00 66 1020.3
20260509094458 37 261 0.0 1.7 0.00 0.00 0.00 66 1020.3
20260509093457 38 261 0.0 1.7 0.00 0.00 0.00 65 1020.3
20260509092458 38 261 0.0 1.7 0.00 0.00 0.00 64 1020.0
20260509091457 39 261 0.0 1.7 0.00 0.00 0.00 63 1020.0
20260509090457 39 259 0.0 1.7 0.00 0.00 0.00 62 1020.0
20260509085457 40 259 0.0 1.7 0.00 0.00 0.00 62 1020.0
20260509084457 40 259 0.0 1.7 0.00 0.00 0.00 62 1020.0
20260509083457 40 270 0.9 1.7 0.00 0.00 0.00 62 1020.0
20260509082427 40 254 0.0 1.7 0.00 0.00 0.00 60 1020.3
20260509081427 41 254 0.0 1.7 0.00 0.00 0.00 59 1020.3
20260509080427 41 254 0.0 1.7 0.00 0.00 0.00 59 1020.3
20260509075427 42 254 0.9 1.7 0.00 0.00 0.00 59 1020.3
20260509074427 42 291 0.0 1.7 0.00 0.00 0.00 59 1020.3
20260509073427 42 291 0.0 1.7 0.00 0.00 0.00 59 1020.3
20260509072427 43 229 0.0 1.7 0.00 0.00 0.00 57 1020.7
20260509071427 44 222 0.0 1.7 0.00 0.00 0.00 56 1020.7
20260509070427 44 288 0.0 1.7 0.00 0.00 0.00 55 1020.3
20260509065427 45 260 0.9 1.7 0.00 0.00 0.00 54 1020.3
20260509064427 46 259 0.9 1.7 0.00 0.00 0.00 53 1020.7
20260509063427 47 271 0.0 1.7 0.00 0.00 0.00 51 1020.7
20260509062427 48 271 0.0 1.7 0.00 0.00 0.00 49 1020.7
20260509061427 48 277 0.0 1.7 0.00 0.00 0.00 49 1020.7
20260509060427 48 284 0.9 0.9 0.00 0.00 0.00 49 1020.7
20260509055427 49 267 0.0 8.7 0.00 0.00 0.00 50 1020.7
20260509054426 49 267 0.0 8.7 0.00 0.00 0.00 49 1020.7
20260509053426 50 278 0.0 8.7 0.00 0.00 0.00 49 1020.7
20260509052427 50 292 0.0 8.7 0.00 0.00 0.00 47 1020.7
20260509051426 50 296 0.0 8.7 0.00 0.00 0.00 47 1020.7
20260509050427 50 276 0.0 8.7 0.00 0.00 0.00 48 1020.7
20260509045426 50 276 0.9 8.7 0.00 0.00 0.00 48 1020.7
20260509044426 50 276 0.9 8.7 0.00 0.00 0.00 48 1020.3
20260509043426 51 225 0.0 8.7 0.00 0.00 0.00 46 1020.3
20260509042426 52 231 0.9 8.7 0.00 0.00 0.00 44 1020.3
20260509041426 52 263 0.0 8.7 0.00 0.00 0.00 43 1020.3
20260509040426 53 263 0.9 8.7 0.00 0.00 0.00 43 1020.0
20260509035426 53 263 0.0 8.7 0.00 0.00 0.00 44 1020.0
20260509034426 54 262 0.0 8.7 0.00 0.00 0.00 44 1019.6
20260509033426 55 262 0.0 8.7 0.00 0.00 0.00 43 1019.6
20260509032426 55 263 0.0 8.7 0.00 0.00 0.00 42 1019.3
20260509031426 56 263 0.0 8.7 0.00 0.00 0.00 41 1019.3
20260509030426 56 264 0.0 8.7 0.00 0.00 0.00 40 1019.0
20260509025426 57 262 0.0 8.7 0.00 0.00 0.00 39 1019.0
20260509024426 57 257 0.9 8.7 0.00 0.00 0.00 38 1018.6
20260509023426 59 258 1.7 8.7 0.00 0.00 0.00 37 1018.6
20260509022426 60 261 0.9 8.7 0.00 0.00 0.00 36 1018.3
20260509021356 62 245 0.9 8.7 0.00 0.00 0.00 33 1018.3
20260509020356 63 259 0.9 8.7 0.00 0.00 0.00 31 1017.9
20260509015356 64 263 0.9 8.7 0.00 0.00 0.00 28 1017.9
20260509014326 65 274 0.9 8.7 0.00 0.00 0.00 28 1017.9
20260509013326 65 290 0.0 8.7 0.00 0.00 0.00 29 1017.9
20260509012326 66 254 1.7 8.7 0.00 0.00 0.00 28 1017.6
20260509011326 67 283 0.9 8.7 0.00 0.00 0.00 26 1017.6
20260509010326 69 334 0.0 8.7 0.00 0.00 0.00 26 1017.6
20260509005256 69 52 0.0 8.7 0.00 0.00 0.00 26 1017.6
20260509004256 70 76 0.0 8.7 0.00 0.00 0.00 25 1017.9
20260509003256 70 117 0.0 8.7 0.00 0.00 0.00 24 1017.9
20260509002256 72 109 0.0 8.7 0.00 0.00 0.00 24 1017.9
20260509001256 72 109 0.0 8.7 0.00 0.00 0.00 24 1017.9
20260509000256 73 64 1.7 8.7 0.00 0.00 0.00 23 1017.9
20260508235255 74 131 1.7 8.7 0.00 0.00 0.00 21 1017.9
20260508234255 73 18 2.6 8.7 0.00 0.00 0.00 22 1017.6
20260508233255 72 19 1.7 8.7 0.00 0.00 0.00 23 1017.6
20260508232255 72 35 1.7 8.7 0.00 0.00 0.00 22 1017.9
20260508231255 73 0 2.6 8.7 0.00 0.00 0.00 21 1017.9
20260508230254 73 32 1.7 8.7 0.00 0.00 0.00 20 1017.9
20260508225254 74 330 0.9 8.7 0.00 0.00 0.00 18 1018.0
20260508224253 75 334 0.9 8.7 0.00 0.00 0.00 18 1018.3
20260508223253 75 230 0.9 8.7 0.00 0.00 0.00 18 1018.3
20260508222253 76 162 0.0 8.7 0.00 0.00 0.00 20 1018.3
20260508221253 76 203 1.7 8.7 0.00 0.00 0.00 18 1018.3
20260508220253 77 293 2.6 8.7 0.00 0.00 0.00 18 1018.6
20260508215253 77 290 0.0 8.7 0.00 0.00 0.00 19 1018.6
20260508214253 75 165 0.9 8.7 0.00 0.00 0.00 20 1018.6
20260508213253 75 168 0.9 8.7 0.00 0.00 0.00 21 1018.7
20260508212253 76 278 1.7 8.7 0.00 0.00 0.00 18 1019.0
20260508211253 75 160 0.9 8.7 0.00 0.00 0.00 20 1019.0
20260508210253 74 356 0.0 8.7 0.00 0.00 0.00 21 1019.3
20260508205253 74 152 1.7 8.7 0.00 0.00 0.00 20 1019.3
20260508204253 74 125 1.7 8.7 0.00 0.00 0.00 22 1019.3